| time (UTC) | temp F | wind direction | speed MPH | gust MPH | rain 1hr in | rain 24hr in | rain mn in | humidity % | barometer mb |
| 20260509154002 | 80 | 290 | 4.0 | 9.0 | 0.00 | 0.03 | 0.03 | 83 | 1010.4 |
| 20260509153502 | 79 | 205 | 4.0 | 7.0 | 0.00 | 0.03 | 0.03 | 83 | 1010.3 |
| 20260509153002 | 79 | 135 | 4.0 | 8.0 | 0.00 | 0.03 | 0.03 | 84 | 1010.3 |
| 20260509152502 | 79 | 219 | 3.0 | 8.0 | 0.00 | 0.03 | 0.03 | 85 | 1010.4 |
| 20260509152001 | 79 | 241 | 3.0 | 8.0 | 0.00 | 0.03 | 0.03 | 85 | 1010.3 |
| 20260509151502 | 78 | 209 | 3.0 | 8.0 | 0.00 | 0.03 | 0.03 | 86 | 1010.3 |
| 20260509151001 | 78 | 254 | 3.0 | 8.0 | 0.00 | 0.03 | 0.03 | 86 | 1010.2 |
| 20260509150502 | 78 | 273 | 3.0 | 8.0 | 0.00 | 0.03 | 0.03 | 86 | 1010.1 |
| 20260509150000 | 79 | 193 | 3.0 | 8.0 | 0.00 | 0.03 | 0.03 | 85 | 1010.1 |
| 20260509145501 | 79 | 222 | 3.0 | 8.0 | 0.00 | 0.03 | 0.03 | 86 | 1010.1 |
| 20260509145000 | 79 | 284 | 2.0 | 6.0 | 0.00 | 0.03 | 0.03 | 87 | 1010.1 |
| 20260509144501 | 79 | 329 | 2.0 | 6.0 | 0.00 | 0.03 | 0.03 | 86 | 1010.1 |
| 20260509144002 | 79 | 344 | 2.0 | 7.0 | 0.00 | 0.03 | 0.03 | 85 | 1010.0 |
| 20260509143501 | 79 | 273 | 3.0 | 7.0 | 0.00 | 0.03 | 0.03 | 85 | 1010.0 |
| 20260509143002 | 79 | 146 | 2.0 | 6.0 | 0.00 | 0.03 | 0.03 | 85 | 1009.9 |
| 20260509142502 | 79 | 292 | 2.0 | 7.0 | 0.00 | 0.03 | 0.03 | 85 | 1009.7 |
| 20260509142001 | 78 | 298 | 3.0 | 7.0 | 0.00 | 0.03 | 0.03 | 86 | 1009.8 |
| 20260509141501 | 78 | 256 | 3.0 | 6.0 | 0.00 | 0.03 | 0.03 | 86 | 1009.7 |
| 20260509141002 | 78 | 152 | 2.0 | 5.0 | 0.00 | 0.03 | 0.03 | 87 | 1009.6 |
| 20260509140748 | 78 | 257 | 1.0 | 5.0 | 0.00 | 0.03 | 0.03 | 88 | 1009.6 |
| 20260509140002 | 77 | 230 | 2.0 | 3.0 | 0.00 | 0.03 | 0.03 | 90 | 1009.6 |
| 20260509135501 | 76 | 231 | 2.0 | 3.0 | 0.00 | 0.03 | 0.03 | 90 | 1009.5 |
| 20260509135003 | 75 | 189 | 2.0 | 5.0 | 0.00 | 0.03 | 0.03 | 93 | 1009.4 |
| 20260509134502 | 74 | 111 | 2.0 | 5.0 | 0.00 | 0.03 | 0.03 | 96 | 1009.5 |
| 20260509134002 | 74 | 286 | 2.0 | 4.0 | 0.00 | 0.03 | 0.03 | 98 | 1009.6 |
| 20260509133502 | 73 | 348 | 2.0 | 4.0 | 0.00 | 0.03 | 0.03 | 99 | 1009.7 |
| 20260509133002 | 73 | 216 | 2.0 | 5.0 | 0.00 | 0.03 | 0.03 | 99 | 1009.8 |
| 20260509132745 | 73 | 307 | 2.0 | 5.0 | 0.00 | 0.03 | 0.03 | 100 | 1009.7 |
| 20260509132232 | 72 | 247 | 2.0 | 6.0 | 0.00 | 0.03 | 0.03 | 100 | 1009.7 |
| 20260509131501 | 72 | 236 | 3.0 | 6.0 | 0.00 | 0.03 | 0.03 | 100 | 1009.8 |
| 20260509131245 | 72 | 253 | 3.0 | 5.0 | 0.00 | 0.03 | 0.03 | 99 | 1009.9 |
| 20260509130505 | 72 | 245 | 2.0 | 5.0 | 0.00 | 0.03 | 0.03 | 99 | 1010.0 |
| 20260509130225 | 72 | 206 | 2.0 | 4.0 | 0.00 | 0.03 | 0.03 | 99 | 1010.0 |
| 20260509125501 | 72 | 202 | 2.0 | 3.0 | 0.00 | 0.03 | 0.03 | 99 | 1010.0 |
| 20260509125228 | 72 | 238 | 2.0 | 3.0 | 0.00 | 0.03 | 0.03 | 99 | 1010.0 |
| 20260509124724 | 72 | 252 | 1.0 | 3.0 | 0.00 | 0.03 | 0.03 | 99 | 1009.9 |
| 20260509124001 | 71 | 253 | 1.0 | 2.0 | 0.00 | 0.03 | 0.03 | 99 | 1009.9 |
| 20260509123501 | 71 | 228 | 0.0 | 1.0 | 0.00 | 0.03 | 0.03 | 99 | 1009.9 |
| 20260509123002 | 71 | 0 | 0.0 | 1.0 | 0.00 | 0.03 | 0.03 | 99 | 1010.0 |
| 20260509122730 | 71 | 0 | 0.0 | 1.0 | 0.00 | 0.03 | 0.03 | 99 | 1009.9 |
| 20260509122002 | 71 | 0 | 0.0 | 1.0 | 0.00 | 0.03 | 0.03 | 99 | 1009.9 |
| 20260509121727 | 71 | 318 | 0.0 | 2.0 | 0.00 | 0.03 | 0.03 | 99 | 1009.9 |
| 20260509121001 | 71 | 0 | 1.0 | 2.0 | 0.00 | 0.03 | 0.03 | 99 | 1009.9 |
| 20260509120500 | 71 | 250 | 1.0 | 2.0 | 0.00 | 0.03 | 0.03 | 99 | 1009.9 |
| 20260509120001 | 71 | 261 | 0.0 | 1.0 | 0.00 | 0.03 | 0.03 | 99 | 1009.9 |
| 20260509115725 | 71 | 257 | 0.0 | 1.0 | 0.00 | 0.03 | 0.03 | 99 | 1010.0 |
| 20260509115002 | 71 | 0 | 0.0 | 1.0 | 0.00 | 0.03 | 0.03 | 99 | 1010.1 |
| 20260509114501 | 71 | 0 | 0.0 | 1.0 | 0.00 | 0.03 | 0.03 | 99 | 1010.3 |
| 20260509114001 | 72 | 198 | 0.0 | 1.0 | 0.00 | 0.03 | 0.03 | 99 | 1010.7 |
| 20260509113501 | 72 | 305 | 0.0 | 1.0 | 0.00 | 0.03 | 0.03 | 99 | 1010.4 |
| 20260509113001 | 72 | 0 | 0.0 | 1.0 | 0.03 | 0.03 | 0.03 | 99 | 1010.5 |
| 20260509112729 | 72 | 325 | 0.0 | 1.0 | 0.03 | 0.03 | 0.03 | 99 | 1011.0 |
| 20260509112002 | 72 | 289 | 0.0 | 2.0 | 0.03 | 0.03 | 0.03 | 99 | 1011.1 |
| 20260509111503 | 72 | 312 | 1.0 | 2.0 | 0.03 | 0.03 | 0.03 | 99 | 1011.2 |
| 20260509111459 | 72 | 218 | 1.0 | 2.0 | 0.03 | 0.03 | 0.03 | 99 | 1011.4 |
| 20260509110501 | 72 | 0 | 0.0 | 1.0 | 0.03 | 0.03 | 0.03 | 99 | 1011.4 |
| 20260509110228 | 72 | 190 | 0.0 | 1.0 | 0.03 | 0.03 | 0.03 | 99 | 1011.3 |
| 20260509105501 | 72 | 149 | 0.0 | 1.0 | 0.03 | 0.03 | 0.03 | 99 | 1011.3 |
| 20260509105001 | 72 | 0 | 0.0 | 1.0 | 0.03 | 0.03 | 0.03 | 99 | 1011.3 |
| 20260509104502 | 72 | 50 | 0.0 | 1.0 | 0.03 | 0.03 | 0.03 | 99 | 1011.3 |
| 20260509104001 | 72 | 325 | 0.0 | 1.0 | 0.03 | 0.03 | 0.03 | 99 | 1011.2 |
| 20260509103501 | 72 | 267 | 0.0 | 1.0 | 0.03 | 0.03 | 0.02 | 99 | 1011.3 |
| 20260509103001 | 72 | 0 | 0.0 | 2.0 | 0.00 | 0.00 | 0.00 | 99 | 1011.4 |
| 20260509102500 | 72 | 0 | 0.0 | 2.0 | 0.00 | 0.00 | 0.00 | 98 | 1011.3 |
| 20260509102004 | 72 | 0 | 0.0 | 2.0 | 0.00 | 0.00 | 0.00 | 98 | 1011.3 |
| 20260509101502 | 72 | 0 | 1.0 | 2.0 | 0.00 | 0.00 | 0.00 | 98 | 1011.2 |
| 20260509101001 | 72 | 356 | 1.0 | 2.0 | 0.00 | 0.00 | 0.00 | 98 | 1011.1 |
| 20260509100501 | 72 | 148 | 1.0 | 2.0 | 0.00 | 0.00 | 0.00 | 98 | 1010.9 |
| 20260509100001 | 72 | 0 | 0.0 | 2.0 | 0.00 | 0.00 | 0.00 | 98 | 1010.8 |
| 20260509095500 | 72 | 8 | 0.0 | 1.0 | 0.00 | 0.00 | 0.00 | 98 | 1010.7 |
| 20260509095002 | 72 | 2 | 0.0 | 1.0 | 0.00 | 0.00 | 0.00 | 98 | 1010.5 |
| 20260509094723 | 72 | 46 | 0.0 | 2.0 | 0.00 | 0.00 | 0.00 | 98 | 1010.3 |
| 20260509094001 | 72 | 0 | 1.0 | 2.0 | 0.00 | 0.00 | 0.00 | 98 | 1010.1 |
| 20260509093500 | 72 | 248 | 1.0 | 2.0 | 0.00 | 0.00 | 0.00 | 98 | 1009.9 |
| 20260509093000 | 72 | 267 | 1.0 | 2.0 | 0.00 | 0.00 | 0.00 | 98 | 1009.7 |
| 20260509092501 | 72 | 287 | 1.0 | 2.0 | 0.00 | 0.00 | 0.00 | 98 | 1009.7 |
| 20260509092001 | 72 | 256 | 1.0 | 2.0 | 0.00 | 0.00 | 0.00 | 98 | 1009.7 |
| 20260509091730 | 72 | 265 | 0.0 | 1.0 | 0.00 | 0.00 | 0.00 | 98 | 1009.6 |
| 20260509091001 | 72 | 0 | 0.0 | 1.0 | 0.00 | 0.00 | 0.00 | 98 | 1009.5 |
| 20260509090500 | 72 | 238 | 0.0 | 1.0 | 0.00 | 0.00 | 0.00 | 98 | 1009.6 |
| 20260509090001 | 72 | 152 | 0.0 | 2.0 | 0.00 | 0.00 | 0.00 | 98 | 1009.6 |
| 20260509085500 | 72 | 0 | 0.0 | 2.0 | 0.00 | 0.00 | 0.00 | 98 | 1009.7 |
| 20260509085001 | 72 | 0 | 0.0 | 2.0 | 0.00 | 0.00 | 0.00 | 98 | 1009.7 |
| 20260509084501 | 72 | 197 | 0.0 | 2.0 | 0.00 | 0.00 | 0.00 | 98 | 1009.9 |
| 20260509084001 | 72 | 283 | 0.0 | 1.0 | 0.00 | 0.00 | 0.00 | 98 | 1010.1 |
| 20260509083500 | 72 | 0 | 0.0 | 1.0 | 0.00 | 0.00 | 0.00 | 98 | 1010.2 |
| 20260509083231 | 72 | 199 | 0.0 | 1.0 | 0.00 | 0.00 | 0.00 | 98 | 1010.3 |
| 20260509082500 | 72 | 0 | 0.0 | 1.0 | 0.00 | 0.00 | 0.00 | 98 | 1010.3 |
| 20260509082230 | 72 | 188 | 0.0 | 1.0 | 0.00 | 0.00 | 0.00 | 98 | 1010.2 |
| 20260509081501 | 72 | 235 | 0.0 | 1.0 | 0.00 | 0.00 | 0.00 | 98 | 1010.1 |
| 20260509081001 | 72 | 3 | 0.0 | 1.0 | 0.00 | 0.00 | 0.00 | 97 | 1009.9 |
| 20260509080501 | 72 | 243 | 0.0 | 2.0 | 0.00 | 0.00 | 0.00 | 97 | 1010.1 |
| 20260509080227 | 72 | 184 | 1.0 | 2.0 | 0.00 | 0.00 | 0.00 | 97 | 1010.3 |
| 20260509075502 | 72 | 230 | 1.0 | 2.0 | 0.00 | 0.00 | 0.00 | 97 | 1010.3 |
| 20260509075002 | 72 | 247 | 1.0 | 2.0 | 0.00 | 0.00 | 0.00 | 97 | 1010.2 |
| 20260509074503 | 72 | 240 | 1.0 | 2.0 | 0.00 | 0.00 | 0.00 | 97 | 1010.3 |
| 20260509074001 | 72 | 183 | 0.0 | 2.0 | 0.00 | 0.00 | 0.00 | 97 | 1010.4 |
| 20260509073505 | 72 | 294 | 0.0 | 1.0 | 0.00 | 0.00 | 0.00 | 97 | 1010.5 |
| 20260509073002 | 72 | 0 | 0.0 | 2.0 | 0.00 | 0.00 | 0.00 | 97 | 1010.5 |
| 20260509072501 | 72 | 187 | 1.0 | 2.0 | 0.00 | 0.00 | 0.00 | 97 | 1010.5 |
| 20260509072001 | 72 | 139 | 1.0 | 2.0 | 0.00 | 0.00 | 0.00 | 97 | 1010.8 |
| 20260509071502 | 72 | 228 | 1.0 | 2.0 | 0.00 | 0.00 | 0.00 | 96 | 1010.9 |
| 20260509071002 | 72 | 232 | 0.0 | 1.0 | 0.00 | 0.00 | 0.00 | 96 | 1010.8 |
| 20260509070501 | 72 | 226 | 0.0 | 2.0 | 0.00 | 0.00 | 0.00 | 96 | 1010.9 |
| 20260509070001 | 72 | 0 | 1.0 | 2.0 | 0.00 | 0.00 | 0.00 | 96 | 1010.8 |
| 20260509065501 | 72 | 174 | 1.0 | 2.0 | 0.00 | 0.00 | 0.00 | 96 | 1010.4 |
| 20260509065002 | 72 | 234 | 0.0 | 2.0 | 0.00 | 0.00 | 0.00 | 96 | 1010.4 |
| 20260509064726 | 72 | 254 | 1.0 | 2.0 | 0.00 | 0.00 | 0.00 | 96 | 1010.5 |
| 20260509064002 | 72 | 147 | 1.0 | 2.0 | 0.00 | 0.00 | 0.00 | 96 | 1010.5 |
| 20260509063501 | 73 | 277 | 1.0 | 3.0 | 0.00 | 0.00 | 0.00 | 95 | 1010.7 |
| 20260509063002 | 73 | 220 | 1.0 | 4.0 | 0.00 | 0.00 | 0.00 | 95 | 1010.8 |
| 20260509062502 | 73 | 0 | 2.0 | 4.0 | 0.00 | 0.00 | 0.00 | 95 | 1010.4 |
| 20260509062001 | 73 | 155 | 2.0 | 4.0 | 0.00 | 0.00 | 0.00 | 94 | 1010.4 |
| 20260509061503 | 73 | 274 | 2.0 | 4.0 | 0.00 | 0.00 | 0.00 | 94 | 1010.3 |
| 20260509061003 | 73 | 277 | 1.0 | 3.0 | 0.00 | 0.00 | 0.00 | 94 | 1010.2 |
| 20260509060502 | 73 | 228 | 1.0 | 6.0 | 0.00 | 0.00 | 0.00 | 93 | 1010.2 |
| 20260509060000 | 73 | 257 | 2.0 | 6.0 | 0.00 | 0.00 | 0.00 | 93 | 1010.2 |
| 20260509055502 | 73 | 282 | 1.0 | 4.0 | 0.00 | 0.00 | 0.00 | 93 | 1010.3 |
| 20260509055001 | 73 | 260 | 2.0 | 5.0 | 0.00 | 0.00 | 0.00 | 93 | 1010.3 |
| 20260509054501 | 74 | 302 | 2.0 | 5.0 | 0.00 | 0.00 | 0.00 | 93 | 1010.0 |
| 20260509054002 | 74 | 138 | 2.0 | 4.0 | 0.00 | 0.00 | 0.00 | 92 | 1009.7 |
| 20260509053502 | 74 | 144 | 2.0 | 5.0 | 0.00 | 0.00 | 0.00 | 92 | 1009.5 |
| 20260509053003 | 74 | 160 | 1.0 | 5.0 | 0.00 | 0.00 | 0.00 | 92 | 1009.4 |
| 20260509052501 | 74 | 266 | 1.0 | 2.0 | 0.00 | 0.00 | 0.00 | 92 | 1009.3 |
| 20260509052001 | 74 | 229 | 1.0 | 5.0 | 0.00 | 0.00 | 0.00 | 92 | 1009.3 |
| 20260509051501 | 74 | 106 | 2.0 | 5.0 | 0.00 | 0.00 | 0.00 | 92 | 1009.3 |
| 20260509051245 | 74 | 147 | 2.0 | 5.0 | 0.00 | 0.00 | 0.00 | 91 | 1009.2 |
| 20260509050502 | 74 | 138 | 2.0 | 4.0 | 0.00 | 0.00 | 0.00 | 91 | 1009.1 |
| 20260509050002 | 74 | 169 | 1.0 | 3.0 | 0.00 | 0.00 | 0.00 | 91 | 1009.2 |
| 20260509045502 | 74 | 65 | 1.0 | 3.0 | 0.00 | 0.00 | 0.00 | 91 | 1009.3 |
| 20260509045004 | 74 | 22 | 1.0 | 4.0 | 0.00 | 0.00 | 0.00 | 91 | 1009.3 |
| 20260509044503 | 74 | 286 | 1.0 | 4.0 | 0.00 | 0.00 | 0.00 | 91 | 1009.4 |
| 20260509044003 | 74 | 253 | 2.0 | 3.0 | 0.00 | 0.00 | 0.00 | 90 | 1009.5 |
| 20260509043502 | 74 | 291 | 2.0 | 4.0 | 0.00 | 0.00 | 0.00 | 90 | 1009.5 |
| 20260509043002 | 74 | 158 | 1.0 | 4.0 | 0.00 | 0.00 | 0.00 | 90 | 1009.6 |
| 20260509042731 | 74 | 109 | 1.0 | 3.0 | 0.00 | 0.00 | 0.00 | 90 | 1009.6 |
| 20260509042002 | 74 | 124 | 1.0 | 3.0 | 0.00 | 0.00 | 0.00 | 90 | 1009.6 |
| 20260509041502 | 74 | 243 | 1.0 | 3.0 | 0.00 | 0.00 | 0.00 | 90 | 1009.7 |
| 20260509041002 | 74 | 190 | 1.0 | 3.0 | 0.00 | 0.00 | 0.00 | 91 | 1009.7 |
| 20260509040502 | 73 | 0 | 1.0 | 3.0 | 0.00 | 0.00 | 0.00 | 91 | 1009.8 |
| 20260509040002 | 73 | 336 | 1.0 | 3.0 | 0.00 | 0.00 | 0.00 | 91 | 1009.7 |
| 20260509035502 | 73 | 164 | 1.0 | 2.0 | 0.00 | 0.00 | 0.00 | 91 | 1009.8 |
| 20260509035002 | 73 | 113 | 0.0 | 2.0 | 0.00 | 0.00 | 0.00 | 91 | 1009.8 |
| 20260509034503 | 73 | 0 | 1.0 | 2.0 | 0.00 | 0.00 | 0.00 | 91 | 1009.7 |
| 20260509034002 | 73 | 263 | 1.0 | 3.0 | 0.00 | 0.00 | 0.00 | 91 | 1009.6 |
| 20260509033502 | 73 | 289 | 1.0 | 3.0 | 0.00 | 0.00 | 0.00 | 92 | 1009.4 |
| 20260509033003 | 73 | 173 | 1.0 | 3.0 | 0.00 | 0.00 | 0.00 | 92 | 1009.3 |
| 20260509032501 | 73 | 151 | 2.0 | 3.0 | 0.00 | 0.00 | 0.00 | 91 | 1009.2 |
| 20260509032001 | 73 | 185 | 1.0 | 3.0 | 0.00 | 0.00 | 0.00 | 91 | 1009.3 |
| 20260509031503 | 73 | 184 | 1.0 | 2.0 | 0.00 | 0.00 | 0.00 | 91 | 1009.3 |
| 20260509031003 | 73 | 299 | 1.0 | 4.0 | 0.00 | 0.00 | 0.00 | 91 | 1009.3 |
| 20260509030502 | 73 | 150 | 1.0 | 4.0 | 0.00 | 0.00 | 0.00 | 91 | 1009.1 |
| 20260509030002 | 73 | 104 | 1.0 | 3.0 | 0.00 | 0.00 | 0.00 | 90 | 1009.1 |
| 20260509025502 | 73 | 274 | 1.0 | 3.0 | 0.00 | 0.00 | 0.00 | 90 | 1009.2 |
| 20260509025002 | 73 | 184 | 0.0 | 2.0 | 0.00 | 0.00 | 0.00 | 90 | 1009.2 |
| 20260509024502 | 73 | 242 | 0.0 | 1.0 | 0.00 | 0.00 | 0.00 | 90 | 1009.2 |
| 20260509024003 | 74 | 0 | 0.0 | 0.0 | 0.00 | 0.00 | 0.00 | 89 | 1009.2 |
| 20260509023502 | 74 | 0 | 0.0 | 1.0 | 0.00 | 0.00 | 0.00 | 89 | 1009.2 |
| 20260509023002 | 74 | 0 | 0.0 | 2.0 | 0.00 | 0.00 | 0.00 | 89 | 1009.0 |
| 20260509022501 | 74 | 358 | 1.0 | 2.0 | 0.00 | 0.00 | 0.00 | 88 | 1009.0 |
| 20260509022002 | 74 | 205 | 1.0 | 4.0 | 0.00 | 0.00 | 0.00 | 88 | 1008.9 |
| 20260509021502 | 75 | 299 | 1.0 | 4.0 | 0.00 | 0.00 | 0.00 | 87 | 1008.8 |
| 20260509021218 | 75 | 305 | 1.0 | 4.0 | 0.00 | 0.00 | 0.00 | 87 | 1008.7 |
| 20260509020456 | 75 | 25 | 1.0 | 3.0 | 0.00 | 0.00 | 0.00 | 86 | 1008.7 |
| 20260509020451 | 75 | 62 | 2.0 | 4.0 | 0.00 | 0.00 | 0.00 | 86 | 1008.7 |
| 20260509015450 | 75 | 186 | 1.0 | 3.0 | 0.00 | 0.00 | 0.00 | 86 | 1008.7 |
| 20260509014950 | 76 | 145 | 1.0 | 3.0 | 0.00 | 0.00 | 0.00 | 86 | 1008.7 |
| 20260509014449 | 76 | 345 | 2.0 | 4.0 | 0.00 | 0.00 | 0.00 | 85 | 1008.6 |
| 20260509013949 | 76 | 145 | 2.0 | 4.0 | 0.00 | 0.00 | 0.00 | 85 | 1008.5 |
| 20260509013450 | 76 | 300 | 2.0 | 4.0 | 0.00 | 0.00 | 0.00 | 85 | 1008.4 |
| 20260509012952 | 76 | 106 | 2.0 | 4.0 | 0.00 | 0.00 | 0.00 | 84 | 1008.4 |
| 20260509012718 | 76 | 135 | 1.0 | 4.0 | 0.00 | 0.00 | 0.00 | 84 | 1008.4 |
| 20260509011952 | 76 | 223 | 2.0 | 4.0 | 0.00 | 0.00 | 0.00 | 84 | 1008.4 |
| 20260509011718 | 77 | 93 | 2.0 | 4.0 | 0.00 | 0.00 | 0.00 | 83 | 1008.4 |
| 20260509011659 | 76 | 266 | 2.0 | 4.0 | 0.00 | 0.00 | 0.00 | 83 | 1008.4 |
| 20260509010450 | 77 | 70 | 2.0 | 4.0 | 0.00 | 0.00 | 0.00 | 83 | 1008.5 |
| 20260509005950 | 77 | 356 | 2.0 | 4.0 | 0.00 | 0.00 | 0.00 | 83 | 1008.5 |
| 20260509005450 | 77 | 136 | 2.0 | 5.0 | 0.00 | 0.00 | 0.00 | 82 | 1008.4 |
| 20260509004950 | 77 | 358 | 2.0 | 5.0 | 0.00 | 0.00 | 0.00 | 82 | 1008.3 |
| 20260509004724 | 77 | 116 | 3.0 | 7.0 | 0.00 | 0.00 | 0.00 | 82 | 1008.3 |
| 20260509003948 | 77 | 86 | 3.0 | 7.0 | 0.00 | 0.00 | 0.00 | 82 | 1008.3 |
| 20260509003449 | 77 | 93 | 3.0 | 6.0 | 0.00 | 0.00 | 0.00 | 82 | 1008.4 |
| 20260509003219 | 77 | 86 | 2.0 | 5.0 | 0.00 | 0.00 | 0.00 | 82 | 1008.4 |
| 20260509002449 | 77 | 33 | 2.0 | 6.0 | 0.00 | 0.00 | 0.00 | 81 | 1008.4 |
| 20260509001948 | 77 | 59 | 2.0 | 6.0 | 0.00 | 0.00 | 0.00 | 81 | 1008.4 |
| 20260509001450 | 77 | 74 | 2.0 | 6.0 | 0.00 | 0.00 | 0.00 | 81 | 1008.4 |
| 20260509000940 | 77 | 106 | 3.0 | 6.0 | 0.00 | 0.00 | 0.00 | 81 | 1008.5 |
| 20260509000440 | 77 | 123 | 2.0 | 6.0 | 0.00 | 0.00 | 0.00 | 80 | 1008.5 |
| 20260508235940 | 77 | 307 | 3.0 | 7.0 | 0.00 | 0.00 | 0.00 | 80 | 1008.4 |
| 20260508235441 | 78 | 45 | 3.0 | 7.0 | 0.00 | 0.00 | 0.00 | 80 | 1008.5 |
| 20260508234937 | 78 | 358 | 2.0 | 4.0 | 0.00 | 0.00 | 0.00 | 80 | 1008.5 |
| 20260508234437 | 78 | 64 | 2.0 | 6.0 | 0.00 | 0.00 | 0.00 | 79 | 1008.5 |
| 20260508233935 | 78 | 28 | 2.0 | 6.0 | 0.00 | 0.00 | 0.00 | 79 | 1008.5 |
| 20260508233434 | 78 | 124 | 2.0 | 5.0 | 0.00 | 0.00 | 0.00 | 79 | 1008.5 |
| 20260508232933 | 78 | 71 | 2.0 | 5.0 | 0.00 | 0.00 | 0.00 | 79 | 1008.5 |
| 20260508232431 | 78 | 149 | 2.0 | 7.0 | 0.00 | 0.00 | 0.00 | 79 | 1008.5 |
| 20260508231932 | 78 | 43 | 2.0 | 7.0 | 0.00 | 0.00 | 0.00 | 79 | 1008.5 |
| 20260508231431 | 78 | 308 | 2.0 | 8.0 | 0.00 | 0.00 | 0.00 | 78 | 1008.5 |
| 20260508230932 | 78 | 61 | 2.0 | 8.0 | 0.00 | 0.00 | 0.00 | 78 | 1008.4 |
| 20260508230432 | 78 | 9 | 2.0 | 5.0 | 0.00 | 0.00 | 0.00 | 77 | 1008.5 |
| 20260508230214 | 78 | 0 | 2.0 | 6.0 | 0.00 | 0.00 | 0.00 | 78 | 1008.5 |
| 20260508225716 | 78 | 14 | 2.0 | 7.0 | 0.00 | 0.00 | 0.00 | 78 | 1008.4 |
| 20260508224931 | 78 | 72 | 2.0 | 7.0 | 0.00 | 0.00 | 0.00 | 78 | 1008.4 |
| 20260508224430 | 78 | 312 | 2.0 | 5.0 | 0.00 | 0.00 | 0.00 | 78 | 1008.4 |
| 20260508223929 | 78 | 193 | 2.0 | 5.0 | 0.00 | 0.00 | 0.00 | 78 | 1008.4 |
| 20260508223430 | 78 | 25 | 2.0 | 6.0 | 0.00 | 0.00 | 0.00 | 78 | 1008.4 |
| 20260508222929 | 78 | 11 | 2.0 | 6.0 | 0.00 | 0.00 | 0.00 | 78 | 1008.4 |
| 20260508222507 | 78 | 312 | 3.0 | 7.0 | 0.00 | 0.00 | 0.00 | 79 | 1008.5 |
| 20260508222454 | 78 | 36 | 2.0 | 7.0 | 0.00 | 0.00 | 0.00 | 79 | 1008.4 |
| 20260508221429 | 78 | 97 | 2.0 | 7.0 | 0.00 | 0.00 | 0.00 | 79 | 1008.5 |
| 20260508221002 | 78 | 83 | 2.0 | 8.0 | 0.00 | 0.00 | 0.00 | 79 | 1008.5 |
| 20260508220951 | 78 | 133 | 2.0 | 7.0 | 0.00 | 0.00 | 0.00 | 79 | 1008.5 |
| 20260508215929 | 78 | 58 | 2.0 | 8.0 | 0.00 | 0.00 | 0.00 | 79 | 1008.6 |
| 20260508215430 | 78 | 26 | 2.0 | 6.0 | 0.00 | 0.00 | 0.00 | 79 | 1008.6 |
| 20260508214928 | 78 | 52 | 2.0 | 6.0 | 0.00 | 0.00 | 0.00 | 79 | 1008.7 |
| 20260508214430 | 78 | 0 | 2.0 | 5.0 | 0.00 | 0.00 | 0.00 | 78 | 1008.7 |
| 20260508213930 | 78 | 350 | 2.0 | 6.0 | 0.00 | 0.00 | 0.00 | 77 | 1008.7 |
| 20260508213430 | 78 | 75 | 2.0 | 9.0 | 0.00 | 0.00 | 0.00 | 77 | 1008.7 |
| 20260508212929 | 78 | 57 | 2.0 | 9.0 | 0.00 | 0.00 | 0.00 | 77 | 1008.8 |
| 20260508212657 | 78 | 30 | 3.0 | 7.0 | 0.00 | 0.00 | 0.00 | 77 | 1008.9 |
| 20260508211929 | 78 | 163 | 2.0 | 7.0 | 0.00 | 0.00 | 0.00 | 77 | 1009.0 |
| 20260508211429 | 79 | 351 | 2.0 | 6.0 | 0.00 | 0.00 | 0.00 | 76 | 1009.0 |
| 20260508210930 | 79 | 119 | 2.0 | 5.0 | 0.00 | 0.00 | 0.00 | 77 | 1009.2 |
| 20260508210430 | 78 | 73 | 2.0 | 5.0 | 0.00 | 0.00 | 0.00 | 78 | 1009.2 |
| 20260508205929 | 78 | 89 | 2.0 | 6.0 | 0.00 | 0.00 | 0.00 | 77 | 1009.3 |
| 20260508205429 | 78 | 82 | 3.0 | 8.0 | 0.00 | 0.00 | 0.00 | 77 | 1009.4 |
| 20260508204929 | 78 | 40 | 3.0 | 8.0 | 0.00 | 0.00 | 0.00 | 77 | 1009.5 |
| 20260508204719 | 78 | 86 | 2.0 | 8.0 | 0.00 | 0.00 | 0.00 | 77 | 1009.5 |
| 20260508203930 | 77 | 13 | 3.0 | 8.0 | 0.00 | 0.00 | 0.00 | 77 | 1009.6 |
| 20260508203429 | 77 | 36 | 3.0 | 8.0 | 0.00 | 0.00 | 0.00 | 78 | 1009.5 |
| 20260508202930 | 77 | 33 | 2.0 | 6.0 | 0.00 | 0.00 | 0.00 | 78 | 1009.6 |
| 20260508202428 | 77 | 32 | 2.0 | 4.0 | 0.00 | 0.01 | 0.00 | 77 | 1009.7 |
| 20260508201930 | 77 | 84 | 2.0 | 5.0 | 0.00 | 0.01 | 0.00 | 78 | 1009.9 |
| 20260508201429 | 76 | 24 | 2.0 | 5.0 | 0.00 | 0.01 | 0.00 | 78 | 1010.1 |
| 20260508200929 | 76 | 68 | 2.0 | 6.0 | 0.00 | 0.01 | 0.00 | 79 | 1010.1 |
| 20260508200431 | 76 | 91 | 2.0 | 6.0 | 0.00 | 0.01 | 0.00 | 80 | 1010.2 |
| 20260508195928 | 76 | 38 | 2.0 | 5.0 | 0.00 | 0.01 | 0.00 | 78 | 1010.3 |
| 20260508195429 | 76 | 357 | 2.0 | 5.0 | 0.00 | 0.01 | 0.00 | 78 | 1010.3 |
| 20260508194929 | 76 | 50 | 2.0 | 5.0 | 0.00 | 0.01 | 0.00 | 78 | 1010.3 |
| 20260508194429 | 76 | 11 | 2.0 | 5.0 | 0.00 | 0.01 | 0.00 | 78 | 1010.3 |
| 20260508193929 | 76 | 12 | 2.0 | 6.0 | 0.00 | 0.01 | 0.00 | 77 | 1010.4 |
| 20260508193430 | 76 | 50 | 2.0 | 6.0 | 0.00 | 0.01 | 0.00 | 76 | 1010.4 |
| 20260508192929 | 76 | 113 | 2.0 | 6.0 | 0.00 | 0.01 | 0.00 | 77 | 1010.4 |
| 20260508192429 | 76 | 338 | 2.0 | 6.0 | 0.00 | 0.01 | 0.00 | 76 | 1010.5 |
| 20260508192214 | 77 | 46 | 2.0 | 5.0 | 0.00 | 0.01 | 0.00 | 75 | 1010.5 |
| 20260508191429 | 77 | 125 | 2.0 | 4.0 | 0.00 | 0.01 | 0.00 | 75 | 1010.5 |
| 20260508190930 | 76 | 68 | 2.0 | 5.0 | 0.00 | 0.01 | 0.00 | 76 | 1010.5 |
| 20260508190428 | 76 | 21 | 2.0 | 6.0 | 0.00 | 0.01 | 0.00 | 76 | 1010.7 |
| 20260508185929 | 76 | 220 | 2.0 | 6.0 | 0.00 | 0.01 | 0.00 | 75 | 1010.7 |
| 20260508185429 | 76 | 79 | 2.0 | 5.0 | 0.00 | 0.01 | 0.00 | 75 | 1010.8 |
| 20260508184929 | 76 | 81 | 2.0 | 5.0 | 0.00 | 0.01 | 0.00 | 75 | 1011.0 |
| 20260508184429 | 77 | 310 | 1.0 | 4.0 | 0.00 | 0.01 | 0.00 | 74 | 1011.0 |
| 20260508183932 | 76 | 0 | 2.0 | 4.0 | 0.00 | 0.01 | 0.00 | 75 | 1011.1 |
| 20260508183432 | 77 | 32 | 2.0 | 6.0 | 0.00 | 0.01 | 0.00 | 75 | 1011.1 |
| 20260508182930 | 76 | 143 | 2.0 | 7.0 | 0.00 | 0.01 | 0.00 | 75 | 1011.2 |
| 20260508182430 | 76 | 224 | 2.0 | 7.0 | 0.00 | 0.01 | 0.00 | 76 | 1011.3 |
| 20260508181929 | 76 | 90 | 2.0 | 7.0 | 0.00 | 0.01 | 0.00 | 76 | 1011.4 |
| 20260508181429 | 75 | 116 | 2.0 | 6.0 | 0.00 | 0.01 | 0.00 | 76 | 1011.4 |
| 20260508180929 | 75 | 45 | 2.0 | 6.0 | 0.00 | 0.01 | 0.00 | 76 | 1011.4 |
| 20260508180428 | 74 | 165 | 2.0 | 7.0 | 0.00 | 0.01 | 0.00 | 78 | 1011.5 |
| 20260508180000 | 73 | 273 | 2.0 | 7.0 | 0.00 | 0.01 | 0.00 | 78 | 1011.6 |
| 20260508175950 | 74 | 114 | 2.0 | 7.0 | 0.00 | 0.01 | 0.00 | 76 | 1011.5 |
| 20260508174929 | 73 | 61 | 2.0 | 6.0 | 0.00 | 0.01 | 0.00 | 79 | 1011.7 |
| 20260508174430 | 73 | 314 | 2.0 | 4.0 | 0.00 | 0.01 | 0.00 | 79 | 1011.7 |
| 20260508173930 | 73 | 100 | 2.0 | 5.0 | 0.00 | 0.01 | 0.00 | 77 | 1011.7 |
| 20260508173430 | 72 | 60 | 2.0 | 5.0 | 0.00 | 0.01 | 0.00 | 78 | 1011.7 |
| 20260508172929 | 72 | 34 | 2.0 | 5.0 | 0.00 | 0.01 | 0.00 | 78 | 1011.7 |
| 20260508172710 | 72 | 11 | 2.0 | 6.0 | 0.00 | 0.01 | 0.00 | 77 | 1011.8 |
| 20260508172213 | 71 | 134 | 2.0 | 6.0 | 0.00 | 0.01 | 0.00 | 77 | 1011.9 |
| 20260508171429 | 71 | 228 | 2.0 | 4.0 | 0.00 | 0.01 | 0.00 | 79 | 1011.9 |
| 20260508170930 | 71 | 16 | 2.0 | 4.0 | 0.00 | 0.01 | 0.00 | 79 | 1012.0 |
| 20260508170430 | 71 | 340 | 2.0 | 4.0 | 0.00 | 0.01 | 0.00 | 77 | 1012.1 |
| 20260508165930 | 71 | 306 | 1.0 | 3.0 | 0.00 | 0.01 | 0.00 | 78 | 1012.2 |
| 20260508165430 | 71 | 117 | 1.0 | 4.0 | 0.00 | 0.01 | 0.00 | 79 | 1012.3 |
| 20260508164929 | 71 | 40 | 1.0 | 4.0 | 0.00 | 0.01 | 0.00 | 78 | 1012.3 |
| 20260508164429 | 70 | 337 | 1.0 | 4.0 | 0.00 | 0.01 | 0.00 | 80 | 1012.3 |
| 20260508163930 | 71 | 329 | 1.0 | 3.0 | 0.00 | 0.01 | 0.00 | 78 | 1012.4 |
| 20260508163428 | 71 | 70 | 1.0 | 4.0 | 0.00 | 0.01 | 0.00 | 78 | 1012.5 |
| 20260508162929 | 71 | 29 | 1.0 | 4.0 | 0.00 | 0.01 | 0.00 | 77 | 1012.7 |
| 20260508162429 | 71 | 309 | 1.0 | 2.0 | 0.00 | 0.01 | 0.00 | 76 | 1012.6 |
| 20260508161929 | 71 | 334 | 1.0 | 2.0 | 0.00 | 0.01 | 0.00 | 77 | 1012.6 |
| 20260508161429 | 70 | 38 | 1.0 | 2.0 | 0.00 | 0.01 | 0.00 | 76 | 1012.6 |
| 20260508160929 | 70 | 232 | 1.0 | 2.0 | 0.00 | 0.01 | 0.00 | 80 | 1012.7 |
| 20260508160429 | 70 | 0 | 1.0 | 3.0 | 0.00 | 0.01 | 0.00 | 78 | 1012.7 |
| 20260508160420 | 69 | 74 | 1.0 | 3.0 | 0.00 | 0.01 | 0.00 | 79 | 1012.8 |
| 20260508155428 | 69 | 0 | 1.0 | 2.0 | 0.00 | 0.01 | 0.00 | 79 | 1012.8 |
| 20260508155423 | 69 | 142 | 1.0 | 2.0 | 0.00 | 0.01 | 0.00 | 79 | 1012.9 |
| 20260508154429 | 69 | 294 | 2.0 | 3.0 | 0.00 | 0.01 | 0.00 | 79 | 1013.0 |
| 20260508154159 | 68 | 334 | 2.0 | 3.0 | 0.00 | 0.01 | 0.00 | 81 | 1012.8 |
| 20260508154138 | 69 | 153 | 2.0 | 3.0 | 0.00 | 0.01 | 0.00 | 79 | 1012.9 |